Starlink 5477

operational
NORAD ID: 55659 Int'l Des: 2023-021 Owner: SPXS Country: US Constellation: starlink
LEOCIRCULAR

About Starlink 5477

Description loading...

Live Position

Loading 3D Globe...

Upcoming Passes

Altitude History

Altitude vs Time

uPlot chart will show altitude changes over time

Two-Line Element Set

1 55659U 23021AH 26061.62964282 .00001211 00000-0 10926-3 0 9998
2 55659 70.0008 182.3911 0003128 270.4342 89.6459 14.98326072168219
Epoch: Mar 2, 2026 • Age: 34 hours

Current Status

Altitude 580.0 km
Velocity 7.57 km/s
Sub-Earth Point -25.45°S, 64.32°E
Launch Date Feb 17, 2023
Age 3 years
Type internet

Technical Details

Classification Payload
Mass 305.00 kg
Dry Mass 290.00 kg
Total Mass 305.00 kg
Length 0.20 m
Diameter 2.80 m
Span 9.00 m
Shape Box + pan
Manufacturer SPXS
Bus Type Starlink
Phase Status In Orbit
Owner/State SPXS/US

Large Constellations

Loading constellations...